OBJECT AS, 57206

Orbit data source: Space-Track

You're viewing an Uncataloged Satellite

Recently launched and/or uncataloged satellites may have evolving metadata. Metadata may include but not limited to: Owner, Maufacturer, Bus, Motor, and Mission.

OBJECT AS, 57206 is a satellite in SSO that was launched on Tue, 27 Jun 2023 UTC via a SOYUZ-2-1B launch vehicle from the Vostochny Cosmodrome (VOSTO). Unknown objects in Earth's orbit typically refer to objects detected orbiting the Earth but have not yet been identified or cataloged. These objects could be anything from previously untracked satellites, spent rocket stages, debris from satellite collisions, or even natural meteoroids temporarily captured by Earth's gravity.

Loading next visibility...
Identifier
57206, 2023-091AS
Orbit
SSO
Country
Flag of TBDTBD
Related business
None
Manufacturer
Unknown
Mission
Operational Amateur Science
Bus & Motor
Unknown
Mass
Unknown
Launch date (UTC)
2023-06-27 (3 years ago)
Launch vehicle
SOYUZ-2-1B
Launch site
Vostochny Cosmodrome (VOSTO)
Object type
Unknown
Shape & HBR
Box + 2 Pan, 0.1 m
Radar Cross Section
0.080 m², Medium (>0.1 m² and < 1m²)

Expand to show TLE details & history
Last TLE update: 8 hours ago

TLE from 8 hours ago
0 OBJECT AS
1 57206U 23091AS  26162.93348800  .00074984  00000-0  83590-3 0  9997
2 57206  97.5046 242.4418 0002310  80.7381 279.4138 15.62577251164579
Epoch: 2026-06-11T22:24Z
TLE epoch observation values (Epoch: 2026-06-11T22:24:13.363Z)
Latitude
-0.00001°
Longitude
6.11595°
Altitude
383.105 km
Speed
7.68 km/s
True Right ascension
16h 09m 46s
True Declination
0° 00' 00"
Sunlit
Object was in full shadow at epoch
Visualization orbit readout
Latitude
Unknown
Longitude
Unknown
Altitude
Unknown
Speed
Unknown
Apparent Right ascension
Unknown
Apparent Declination
Unknown
Sunlit
N/A
Visualization observer readout
Local Sidereal Time
17:15:35
Azimuth
Unknown
Elevation
Unknown
Doppler factor
Unknown
Orbital elements
Apogee altitude
378.69 km
Perigee altitude
375.569 km
Semi-major axis
6,755.266 km
Eccentricity
0.00023
Inclination
97.5046°
RAAN
242.4418°
Arg. of periapsis
80.7381°
True anomaly
279.38768°
Mean anomaly
279.4138°
Eccentric anomaly
279.40074°
Mean motion
3.90912 °/min
Orbital period
92.09 mins
BSTAR
0.0008359
Loading maneuver chart data...
Computing Atmospheric mass density...
Loading historical data...
Loading historical data...
Loading historical data...
Loading historical data...
Loading historical data...
Loading historical data...
Loading historical data...

Documentation

Showing up to 5 results
|